"Time","Temp","Dewpoint","Humidity","Pressure","Direction","Speed","Gust","Precip","PrecipRate"
"00:04:58","37.6","32.3","81","30.05","319","3.1","5","0.00","0.00"
"00:09:57","37.6","32.3","81","30.05","316","3","6","0.00","0.00"
"00:14:59","37.6","32.3","81","30.06","318","3.8","7","0.00","0.00"
"00:19:58","37.6","32.2","80.8","30.06","299","3.5","8.1","0.00","0.00"
"00:24:57","37.6","32.1","80.5","30.06","307","3.6","10.4","0.00","0.00"
"00:29:59","37.6","32.1","80.1","30.06","304","3.7","10.4","0.00","0.00"
"00:34:58","37.6","32","79.8","30.06","307","3.6","9","0.00","0.00"
"00:39:56","37.6","32","79.8","30.06","281","3.4","7","0.00","0.00"
"00:44:56","37.6","32","80","30.06","294","3.4","9","0.00","0.00"
"00:49:59","37.6","32","80","30.06","303","3.7","10","0.00","0.00"
"00:54:58","37.6","32","79.9","30.06","283","3.3","10","0.00","0.00"
"00:59:56","37.6","32","79.9","30.06","284","3.2","8.1","0.00","0.00"
"01:04:56","37.6","31.9","79.9","30.06","294","2.5","8.1","0.00","0.00"
"01:09:57","37.5","31.9","80.2","30.06","308","2.9","6","0.00","0.00"
"01:14:56","37.5","31.8","79.7","30.07","305","2.9","6","0.00","0.00"
"01:19:59","37.5","31.9","79.9","30.07","300","3","6","0.00","0.00"
"01:24:58","37.5","31.9","80","30.07","312","3.3","9.2","0.00","0.00"
"01:29:57","37.5","31.9","79.9","30.07","310","3.6","9.2","0.00","0.00"
"01:34:58","37.6","31.9","79.6","30.07","326","4.4","7","0.00","0.00"
"01:39:56","37.6","31.8","79.3","30.07","325","4.2","7","0.00","0.00"
"01:44:56","37.6","31.9","79.5","30.08","323","4.3","10.4","0.00","0.00"
"01:49:59","37.6","31.8","79.1","30.08","336","4","9.2","0.00","0.00"
"01:54:59","37.6","31.8","79.2","30.08","313","3.9","7","0.00","0.00"
"01:59:57","37.7","31.9","79.5","30.08","326","3.9","7","0.00","0.00"
"02:04:56","37.7","31.8","79.2","30.08","326","3.6","10.4","0.00","0.00"
"02:09:56","37.7","31.8","79","30.08","322","3.3","10","0.00","0.00"
"02:14:59","37.7","31.8","79","30.09","327","2.7","6","0.00","0.00"
"02:19:58","37.6","31.7","79","30.09","319","3.3","6","0.00","0.00"
"02:24:57","37.7","31.9","79.5","30.09","326","2.8","6","0.00","0.00"
"02:29:59","37.6","31.7","79","30.09","332","4","9.2","0.00","0.00"
"02:34:57","37.7","31.8","79","30.09","319","4.3","11","0.00","0.00"
"02:39:59","37.7","31.7","78.6","30.09","321","3.3","7","0.00","0.00"
"02:44:59","37.7","31.7","78.6","30.09","321","3.5","7","0.00","0.00"
"02:49:59","37.7","31.7","78.7","30.09","326","2.8","7","0.00","0.00"
"02:54:58","37.6","31.7","79","30.09","315","2.8","6","0.00","0.00"
"02:59:57","37.6","31.8","79.2","30.09","318","2.6","6","0.00","0.00"
"03:04:57","37.6","31.7","79.1","30.09","317","2.5","5","0.00","0.00"
"03:09:57","37.5","31.6","79","30.09","328","2.5","5","0.00","0.00"
"03:14:57","37.5","31.6","79","30.09","324","2.8","7","0.00","0.00"
"03:19:57","37.5","31.7","79.2","30.09","338","2.8","6","0.00","0.00"
"03:24:56","37.5","31.6","79","30.09","329","3.1","6","0.00","0.00"
"03:29:58","37.5","31.6","79","30.09","321","2.4","4","0.00","0.00"
"03:34:56","37.5","31.6","79","30.09","319","2.1","5","0.00","0.00"
"03:39:59","37.5","31.6","79","30.09","328","2.5","5","0.00","0.00"
"03:44:58","37.5","31.6","79","30.09","336","2.6","5","0.00","0.00"
"03:49:57","37.5","31.6","79","30.09","332","1.9","4","0.00","0.00"
"03:54:56","37.4","31.5","79","30.09","327","2.4","5","0.00","0.00"
"03:59:58","37.4","31.5","79","30.09","326","1.6","3.5","0.00","0.00"
"04:04:59","37.4","31.5","79","30.09","329","2.1","6","0.00","0.00"
"04:09:59","37.4","31.5","79","30.09","310","2.4","6","0.00","0.00"
"04:14:59","37.4","31.4","78.7","30.09","317","2.1","5","0.00","0.00"
"04:19:59","37.5","31.4","78.5","30.09","327","2.3","5","0.00","0.00"
"04:24:59","37.4","31.5","79","30.09","315","1.3","4","0.00","0.00"
"04:29:58","37.3","31.4","79","30.09","318","1.2","3.5","0.00","0.00"
"04:34:58","37.3","31.4","79.1","30.09","316","1.1","3.5","0.00","0.00"
"04:39:57","37.3","31.4","79","30.09","314","1.8","3.5","0.00","0.00"
"04:44:57","37.2","31.3","79","30.10","314","1.7","4","0.00","0.00"
"04:49:57","37.2","31.3","79","30.10","312","1.7","3.5","0.00","0.00"
"04:54:56","37.2","31.3","79","30.10","308","1.4","3","0.00","0.00"
"04:59:59","37.2","31.4","79.2","30.10","309","1.7","3.5","0.00","0.00"
"05:04:59","37.2","31.3","79.1","30.10","331","1.7","4","0.00","0.00"
"05:09:56","37.2","31.3","79","30.10","332","1.9","4","0.00","0.00"
"05:14:59","37.1","31.2","78.7","30.10","316","2.3","5","0.00","0.00"
"05:19:58","37.2","31.3","79","30.10","307","2.5","5","0.00","0.00"
"05:24:57","37.3","31.2","78.3","30.10","320","2.2","4","0.00","0.00"
"05:29:59","37.3","31.1","78","30.11","325","2.8","7","0.00","0.00"
"05:34:58","37.3","31.1","78","30.11","340","2","6","0.00","0.00"
"05:39:57","37.3","31","77.6","30.11","323","2.6","6","0.00","0.00"
"05:44:56","37.4","30.8","77","30.11","334","2.3","4","0.00","0.00"
"05:49:59","37.5","30.9","77","30.11","334","2.3","6","0.00","0.00"
"05:54:59","37.5","30.9","77","30.11","357","2.1","6","0.00","0.00"
"05:59:57","37.5","30.7","76.3","30.11","328","2.8","7","0.00","0.00"
"06:04:57","37.6","30.7","75.9","30.11","339","2.1","4","0.00","0.00"
"06:09:59","37.7","30.7","75.8","30.11","340","2.4","5","0.00","0.00"
"06:14:59","37.8","30.5","74.8","30.12","316","2.6","5","0.00","0.00"
"06:19:58","37.9","30.4","74.3","30.12","332","4","12","0.00","0.00"
"06:24:59","38","30.3","73.7","30.12","333","2.7","7","0.00","0.00"
"06:29:58","38","30.3","73.4","30.12","333","2.9","6","0.00","0.00"
"06:34:57","38.1","30.2","73","30.12","317","2.4","5","0.00","0.00"
"06:39:59","38.1","30.1","72.8","30.12","335","4.3","10.4","0.00","0.00"
"06:44:59","38.2","30.1","72.2","30.13","327","4","10.4","0.00","0.00"
"06:49:58","38.4","30.2","72","30.13","331","4.4","12","0.00","0.00"
"06:54:57","38.5","29.9","71","30.13","334","5","11","0.00","0.00"
"06:59:59","38.5","29.9","71","30.13","322","4.8","12","0.00","0.00"
"07:04:56","38.5","30","71.3","30.13","327","4.1","7","0.00","0.00"
"07:09:56","38.5","29.9","71","30.13","324","3.7","10.4","0.00","0.00"
"07:14:57","38.5","29.9","71","30.14","314","3.3","10","0.00","0.00"
"07:19:58","38.5","29.8","70.8","30.14","334","3.9","10.4","0.00","0.00"
"07:24:59","38.4","29.8","70.8","30.14","330","4.2","10","0.00","0.00"
"07:29:58","38.5","29.8","70.6","30.14","327","3.5","11","0.00","0.00"
"07:34:59","38.4","29.8","70.8","30.14","316","3.3","6","0.00","0.00"
"07:39:58","38.4","29.7","70.8","30.14","339","3.6","9.2","0.00","0.00"
"07:44:58","38.4","29.5","69.9","30.15","317","4.6","12","0.00","0.00"
"07:49:58","38.5","29.5","69.8","30.15","323","4.4","11","0.00","0.00"
"07:54:57","38.6","29.3","69.1","30.15","333","4.6","12","0.00","0.00"
"07:59:56","38.6","29.4","69.2","30.15","324","4.7","9.2","0.00","0.00"
"08:04:57","38.6","29.5","69.3","30.15","327","4.1","9.2","0.00","0.00"
"08:09:57","38.6","29.2","68.8","30.15","319","4.2","9.2","0.00","0.00"
"08:14:57","38.6","29.4","69.2","30.15","323","2.8","9","0.00","0.00"
"08:19:56","38.6","29.3","69","30.15","332","3.7","8","0.00","0.00"
"08:24:56","38.6","29.4","69.2","30.15","323","4","8.1","0.00","0.00"
"08:29:58","38.6","29.3","69","30.16","328","3.3","10","0.00","0.00"
"08:34:57","38.7","29.4","69","30.16","323","4.8","11","0.00","0.00"
"08:39:59","38.8","29.6","69.3","30.16","330","4.7","12","0.00","0.00"
"08:44:58","38.8","29.6","69.1","30.16","320","3.8","8","0.00","0.00"
"08:49:58","38.8","29.7","69.6","30.16","320","3","6","0.00","0.00"
"08:54:57","38.8","30","70.6","30.16","321","2.9","6","0.00","0.00"
"08:59:59","38.8","29.8","69.8","30.17","321","4","8.1","0.00","0.00"
"09:04:59","38.9","29.8","69.5","30.17","324","3.8","9.2","0.00","0.00"
"09:09:56","38.9","29.8","69.7","30.17","331","3","9","0.00","0.00"
"09:14:56","38.9","29.9","69.9","30.18","333","4.4","12","0.00","0.00"
"09:19:59","38.9","29.8","69.7","30.18","328","4.2","9.2","0.00","0.00"
"09:24:59","39","29.9","69.8","30.18","320","3.9","9.2","0.00","0.00"
"09:29:57","39","30","70.1","30.18","318","4.6","12","0.00","0.00"
"09:34:58","39.1","30","69.7","30.18","322","5","12","0.00","0.00"
"09:39:56","39.1","30.2","70.2","30.18","323","3.2","9.2","0.00","0.00"
"09:44:56","39.2","30.3","70.5","30.18","332","3.3","9.2","0.00","0.00"
"09:49:56","39.2","30.4","70.6","30.18","335","3.5","10","0.00","0.00"
"09:54:59","39.2","30.2","70","30.18","323","3.9","10.4","0.00","0.00"
"09:59:57","39.3","30.3","70.1","30.18","330","4.5","12","0.00","0.00"
"10:04:57","39.3","30.1","69.3","30.18","322","4.8","12","0.00","0.00"
"10:09:58","39.3","30.4","70.1","30.18","326","3.3","12","0.00","0.00"
"10:14:57","39.3","30.5","70.5","30.18","337","3","8.1","0.00","0.00"
"10:19:57","39.4","30.3","69.7","30.18","321","4.6","8.1","0.00","0.00"
"10:24:57","39.4","30.3","69.6","30.18","341","5","11","0.00","0.00"
"10:29:59","39.4","30.3","69.6","30.18","325","4.8","12","0.00","0.00"
"10:34:57","39.5","30.2","69.2","30.18","336","6.4","12","0.00","0.00"
"10:39:59","39.5","30.4","69.7","30.18","330","4.9","12","0.00","0.00"
"10:44:59","39.5","30.2","69","30.18","334","6.2","14","0.00","0.00"
"10:49:59","39.6","30.5","69.8","30.18","313","4","9.2","0.00","0.00"
"10:54:58","39.6","30.6","70","30.18","320","4.3","8","0.00","0.00"
"10:59:57","39.7","30.8","70.3","30.18","309","3.5","11","0.00","0.00"
"11:04:56","39.7","30.7","70","30.18","330","4.8","12","0.00","0.00"
"11:09:57","39.7","30.8","70","30.17","327","4","10.4","0.00","0.00"
"11:14:57","39.8","30.8","70","30.17","336","4.8","12","0.00","0.00"
"11:19:57","39.8","30.8","69.8","30.17","311","4.6","10.4","0.00","0.00"
"11:24:58","39.9","30.6","69.3","30.16","329","6.1","13","0.00","0.00"
"11:29:57","40","30.7","69.4","30.16","327","5.8","13","0.01","0.00"
"11:34:56","40","30.5","68.7","30.16","329","7.3","13","0.01","0.01"
"11:39:59","40","30.6","68.8","30.16","323","5.4","17","0.01","0.01"
"11:44:58","40","30.5","68.6","30.16","335","5.8","12","0.01","0.01"
"11:49:57","40","30.7","69.3","30.16","331","4.3","9.2","0.01","0.01"
"11:54:56","40.1","30.7","69","30.15","337","4.5","13","0.01","0.01"
"11:59:56","40.1","30.6","68.7","30.15","344","6.5","16.1","0.01","0.01"
"12:04:56","40.2","30.9","69.2","30.15","323","4.4","11.5","0.01","0.01"
"12:09:57","40.2","31","69.3","30.15","335","4","12","0.01","0.01"
"12:14:57","40.3","30.9","68.9","30.15","320","5","10.4","0.01","0.01"
"12:19:57","40.3","30.8","68.5","30.15","328","6.5","15","0.01","0.01"
"12:24:58","40.3","30.8","68.6","30.15","329","6.5","13","0.01","0.01"
"12:29:57","40.3","30.6","68","30.15","342","6.5","14","0.01","0.01"
"12:34:59","40.3","30.6","68.2","30.15","335","5.8","17","0.01","0.00"
"12:39:58","40.3","30.6","68","30.15","334","5.3","17.3","0.01","0.00"
"12:44:58","40.3","30.6","68.1","30.15","331","6.4","14","0.01","0.00"
"12:49:59","40.3","30.6","68","30.15","335","7","14","0.01","0.00"
"12:54:56","40.3","30.5","67.8","30.15","347","8.9","16.1","0.01","0.00"
"12:59:59","40.3","30.6","68","30.15","338","6.4","13","0.01","0.00"
"13:04:59","40.3","30.5","67.9","30.15","336","7.1","14","0.01","0.00"
"13:09:59","40.3","30.7","68.2","30.15","330","5.3","14","0.01","0.00"
"13:14:57","40.4","30.9","68.8","30.15","321","4.2","13","0.01","0.00"
"13:19:58","40.5","30.9","68.4","30.14","323","5.5","14","0.01","0.00"
"13:24:58","40.4","30.7","68","30.14","334","5.3","12","0.01","0.00"
"13:29:58","40.4","30.6","67.8","30.14","338","7","16.1","0.01","0.00"
"13:34:58","40.3","30.6","67.9","30.14","336","6.7","22","0.01","0.00"
"13:39:58","40.3","30.4","67.5","30.14","339","10.2","20","0.01","0.00"
"13:44:59","40.2","30.4","67.8","30.14","335","5.9","17.3","0.01","0.00"
"13:49:56","40.2","30.8","69","30.14","340","5.1","10","0.01","0.00"
"13:54:59","40.3","31","69.2","30.14","344","3.7","10","0.01","0.00"
"13:59:59","40.4","31","68.9","30.14","335","3.8","10.4","0.01","0.00"
"14:04:59","40.5","31","68.7","30.14","333","4.6","13","0.01","0.00"
"14:09:57","40.6","31.1","68.6","30.14","334","5.6","14","0.01","0.00"
"14:14:58","40.6","30.8","67.8","30.15","340","6.8","19","0.01","0.00"
"14:19:58","40.7","31.4","69.1","30.15","340","4.1","12","0.01","0.00"
"14:24:59","40.9","31.2","68.3","30.15","341","6.5","20","0.01","0.00"
"14:29:59","40.8","30.8","67.3","30.15","340","7.6","17","0.01","0.00"
"14:34:59","40.7","30.6","67.1","30.15","354","6.5","20","0.01","0.00"
"14:39:55","40.7","30.8","67.5","30.15","328","5.3","13","0.01","0.00"
"14:44:57","40.7","30.8","67.5","30.15","328","7.4","15","0.01","0.00"
"14:49:59","40.8","31.2","68.3","30.15","336","4.9","13","0.01","0.00"
"14:54:57","40.8","30.8","67.2","30.15","337","6.2","16.1","0.01","0.00"
"14:59:57","40.8","30.8","67.2","30.15","335","5.9","16.1","0.01","0.00"
"15:04:59","40.8","30.9","67.5","30.15","353","5.9","15","0.01","0.00"
"15:09:57","40.7","31","68","30.15","339","5.9","16","0.01","0.00"
"15:14:59","40.7","30.9","67.9","30.16","347","4.7","16","0.01","0.00"
"15:19:56","40.6","30.7","67.5","30.16","343","7.4","17.3","0.01","0.00"
"15:24:58","40.5","30.5","67.1","30.16","338","7.7","15","0.01","0.00"
"15:29:58","40.5","30.5","67.2","30.16","341","6.9","15","0.01","0.00"
"15:34:59","40.5","30.2","66.6","30.16","336","6.4","16","0.01","0.00"
"15:39:56","40.4","30.1","66.5","30.16","340","6.6","17","0.01","0.00"
"15:44:57","40.4","30.2","66.8","30.17","345","7.6","20","0.01","0.00"
"15:49:57","40.3","30.3","67.2","30.17","341","5.8","14","0.01","0.00"
"15:54:58","40.3","30.3","67.4","30.17","357","5.5","13","0.01","0.00"
"15:59:58","40.2","30.3","67.4","30.18","340","5.6","14","0.01","0.00"
"16:04:58","40","30.1","67.5","30.18","333","6.8","14","0.01","0.00"
"16:09:59","39.9","30.1","67.7","30.18","340","5.2","16.1","0.01","0.00"
"16:14:56","39.8","30.1","68","30.18","357","7.2","16.1","0.01","0.00"
"16:19:57","39.6","30.1","68.4","30.18","348","4.9","13","0.01","0.00"
"16:24:58","39.5","30.2","69","30.18","348","3.4","10.4","0.01","0.00"
"16:29:58","39.4","30.4","69.9","30.18","340","3.5","12","0.01","0.00"
"16:34:59","39.3","30.1","69.2","30.18","350","5.8","15","0.01","0.00"
"16:39:59","39.2","30.1","69.6","30.18","345","5.1","15","0.01","0.00"
"16:44:57","39.2","30.2","70","30.19","1","4.6","13","0.01","0.00"
"16:49:58","39.1","30.1","70.1","30.19","345","4.7","16","0.01","0.00"
"16:54:59","39","30.1","70.2","30.19","347","6.1","16.1","0.01","0.00"
"16:59:56","38.9","30.3","70.9","30.19","333","3.4","16.1","0.01","0.00"
"17:04:57","38.8","30.2","71","30.19","333","3.9","11","0.01","0.00"
"17:09:59","38.8","30.2","71","30.19","345","5.2","12","0.01","0.00"
"17:14:56","38.7","30.1","71","30.19","340","5.5","13","0.01","0.00"
"17:19:58","38.7","29.8","69.9","30.19","330","9.2","24.2","0.01","0.00"
"17:24:59","38.7","29.5","69.1","30.19","339","6.7","18.4","0.01","0.00"
"17:29:58","38.6","29.3","69.1","30.20","331","5.5","14","0.01","0.00"
"17:34:59","38.5","29.2","69","30.20","333","5.6","10.4","0.01","0.00"
"17:39:59","38.4","29.1","69","30.20","325","4.6","12","0.01","0.00"
"17:44:58","38.3","29.1","69.2","30.20","319","5","12","0.01","0.00"
"17:49:58","38.3","29","69","30.20","343","2.9","9","0.01","0.00"
"17:54:57","38.3","29","69.1","30.20","319","2.3","9.2","0.01","0.00"
"17:59:59","38.2","28.9","69","30.20","333","4.7","17.3","0.01","0.00"
"18:04:59","38.2","28.8","68.4","30.20","333","3.4","16.1","0.01","0.00"
"18:09:56","38.2","28.8","68.6","30.20","338","3.2","10","0.01","0.00"
"18:14:57","38.1","28.5","68","30.20","308","3.4","10.4","0.01","0.00"
"18:19:57","38","28.4","68","30.20","334","3.3","13","0.01","0.00"
"18:24:57","37.9","28.3","68","30.20","331","3.8","11","0.01","0.00"
"18:29:56","37.8","28.3","68.4","30.20","324","3.5","9.2","0.01","0.00"
"18:34:56","37.6","28.3","69.2","30.20","320","3.5","7","0.01","0.00"
"18:39:58","37.5","28.2","69","30.20","319","4.1","8.1","0.01","0.00"
"18:44:57","37.4","28.2","69","30.20","322","3.8","10.4","0.01","0.00"
"18:49:57","37.4","28.2","69","30.20","337","3.1","10","0.01","0.00"
"18:54:57","37.3","28.1","69","30.20","343","2.5","8","0.01","0.00"
"18:59:56","37.4","28.1","69","30.21","323","2.3","4","0.01","0.00"
"19:04:56","37.3","28.1","69.2","30.21","322","1.4","7","0.01","0.00"
"19:09:58","37.2","28.1","69.4","30.21","343","1.4","7","0.01","0.00"
"19:14:58","37.1","28.2","70","30.21","276","0.5","7","0.01","0.00"
"19:19:57","36.9","28","70","30.21","309","2","4","0.01","0.00"
"19:24:56","36.9","28","70","30.21","313","3.5","7","0.01","0.00"
"19:29:58","37","28.1","70","30.21","303","4.2","7","0.01","0.00"
"19:34:57","37","28.1","70","30.21","316","3.9","7","0.01","0.00"
"19:39:56","37","28.1","70","30.20","323","3","6","0.01","0.00"
"19:44:59","37","28.1","70","30.21","322","2","6","0.01","0.00"
"19:49:58","36.8","28","70.2","30.21","301","2.4","5","0.01","0.00"
"19:54:58","36.7","28.1","70.7","30.21","300","2.3","5","0.01","0.00"
"19:59:57","36.7","28.1","70.8","30.21","323","2","6","0.01","0.00"
"20:04:57","36.6","28","70.8","30.21","316","2.3","5","0.01","0.00"
"20:09:58","36.6","28","70.8","30.21","303","2.3","5","0.01","0.00"
"20:14:58","36.5","28","71","30.21","324","1.7","5","0.01","0.00"
"20:19:59","36.4","28","71.2","30.21","316","1.4","4","0.01","0.00"
"20:24:59","36.2","28","72","30.21","316","1.1","3.5","0.01","0.00"
"20:29:59","36.1","27.9","72","30.21","312","1","3.5","0.01","0.00"
"20:34:56","36.1","28","72.3","30.21","304","1.5","3.5","0.01","0.00"
"20:39:59","36.1","28","72.4","30.21","300","1.2","3.5","0.01","0.00"
"20:44:59","36","28.4","73.7","30.21","300","0.5","2.3","0.01","0.00"
"20:49:59","35.7","28.3","74","30.21","299","0.4","2.3","0.01","0.00"
"20:54:58","35.7","28.1","73.8","30.21","285","1","3.5","0.01","0.00"
"20:59:57","35.7","28.1","73.5","30.21","283","0.2","3.5","0.01","0.00"
"21:04:58","35.7","28","73.5","30.21","283","0.1","2.3","0.01","0.00"
"21:09:59","35.8","27.9","72.8","30.21","283","0.4","3.5","0.01","0.00"
"21:14:59","35.9","28","72.8","30.21","283","0.1","3","0.01","0.00"
"21:19:55","35.9","28.5","74.1","30.21","283","0.2","2.3","0.01","0.00"
"21:24:58","35.8","28.6","75","30.21","283","0.4","2.3","0.01","0.00"
"21:29:58","35.6","28.5","75","30.21","283","0","0","0.01","0.00"
"21:34:57","35.5","28.4","75.2","30.21","283","0","1.2","0.01","0.00"
"21:39:56","35.4","28.4","75.4","30.21","283","0","0","0.01","0.00"
"21:44:56","35.3","28.5","76","30.21","283","0.1","1.2","0.01","0.00"
"21:49:56","35.2","28.5","76.3","30.21","283","0.1","1.2","0.01","0.00"
"21:54:59","35.2","28.5","76.2","30.21","283","0.7","2.3","0.01","0.00"
"21:59:58","35.5","28.5","75.3","30.21","283","1.3","3","0.01","0.00"
"22:04:59","35.7","28.6","75","30.21","283","1.8","3.5","0.01","0.00"
"22:09:57","35.5","28.4","75","30.21","283","1.7","3.5","0.01","0.00"
"22:14:57","35.3","28.2","75","30.21","298","1.8","4","0.01","0.00"
"22:19:57","35.3","28.1","74.7","30.20","340","1.1","4","0.01","0.00"
"22:24:57","35.2","27.7","74","30.20","351","1.3","3.5","0.01","0.00"
"22:29:57","35.2","27.7","74","30.20","341","1","4","0.01","0.00"
"22:34:57","35.2","27.7","74","30.20","344","1.3","4","0.01","0.00"
"22:39:57","35.2","27.8","74.2","30.20","328","2.1","5","0.01","0.00"
"22:44:57","35.4","27.9","74","30.20","321","3.1","10.4","0.01","0.00"
"22:49:58","35.7","28.2","74","30.20","338","1.8","4","0.01","0.00"
"22:54:59","35.7","28.1","73.8","30.20","354","1.3","3.5","0.01","0.00"
"22:59:58","35.6","28.2","74","30.20","355","1.5","3.5","0.01","0.00"
"23:04:58","35.6","28.1","74","30.20","313","1.9","4","0.01","0.00"
"23:09:59","35.7","28.6","74.9","30.20","317","3.3","4","0.01","0.00"
"23:14:59","35.7","28.6","75","30.20","325","3","5","0.01","0.00"
"23:19:57","35.7","28.6","75","30.20","332","1.8","5","0.01","0.00"
"23:24:58","35.8","28.6","74.8","30.20","341","1.2","5","0.01","0.00"
"23:29:57","36","28.5","74.2","30.20","343","2","6","0.01","0.00"
"23:34:57","36.2","28.7","74","30.20","334","2.5","6","0.01","0.00"
"23:39:59","36.4","28.9","74","30.20","328","3.9","9.2","0.01","0.00"
"23:44:59","36.8","29.2","73.8","30.20","344","3.5","6","0.01","0.00"
"23:49:58","37","29.1","73","30.19","344","2.4","6","0.01","0.00"
"23:54:58","37.1","29.1","72.8","30.19","335","2.7","7","0.01","0.00"
"23:59:57","37.3","29.2","72.4","30.19","329","3.9","13","0.01","0.00"
